COSMOS 1275 DEB

Satellite information

Favourite Embed

Satellite Type and Status

DEBRISIN ORBIT

Key statistics

Satellite COSMOS 1275 DEB at a glance.

Uptime

16104

Days in orbit

Revolutions

≈ 14.2

Per day

Orbit

LEO

Low Earth Orbit

Inclination

82.8

Latest

Satellite identification and parameters

Extended collection of information and parameters for COSMOS 1275 DEB.

Object identification

Identified? True

Debris? True

Object name: COSMOS 1275 DEB

International designator: 1981-053FV

Object number (NORAD): 13473

Object ID (CCSDS): 13473

Country: COMMONWEALTH OF INDEPENDENT STATES (CIS)

Current information (Y/N): Y

RCS size: SMALL

Orbital parameters

Period: 101.17 minutes

Inclination: 82.8322 deg

SMA: 7192.217 km

Apoapsis: 844.062 km

Periapsis: 784.101 km

RAAN: 255.8342 deg

Eccentricy: 0.0041684

Argument of periapsis: 10.5965 deg

Mean anomaly: 52.9668 deg

Mean motion: 14.23339928 rev/day

Mean motion (dot): 0.00002134 rev/day2

B* drag term: 0.00092633 1/REarth

Two-line elements (TLE)

Creation date: July 6, 2025, 6:05 p.m.

Reference frame: TEME

Reference center: EARTH

Epoch: July 6, 2025, 12:09 p.m. UTC

TLE line 0: 0 COSMOS 1275 DEB

TLE line 1: 1 13473U 81053FV 25187.50665833 .00002134 00000-0 92633-3 0 9990

TLE line 2: 2 13473 82.8322 255.8342 0041684 10.5965 52.9668 14.23339928198618

Live tracking on map

Real-time ground track for satellite COSMOS 1275 DEB.

In-orbit conjunctions

A list of the most updated potential collisions computed for object COSMOS 1275 DEB.

Target Orbit TCA Probability of collision Miss distance Type
FENGYUN 1C DEB SSO 2024-10-11 05:35:18 0.0001321698 109.0 (m) DEBRIS
FENGYUN 1C DEB SSO 2024-10-05 16:08:15 0.0001118744 189.0 (m) DEBRIS
SL-8 R/B LEO 2024-05-31 12:02:17 0.0002470892 382.0 (m) ROCKET BODY

Associated space launch

Navigation satellite providing location information for the Tsiklon-B navigation system

COSMOS 1275 DEB was lifted into orbit during the mission ‘Kosmos-3M | Parus 27’, on board a Kosmos-3M space rocket.

The launch took place on June 4, 1981, 3:41 p.m. from 132/2.

For more information about the launch, click the button.

Launch to space Kosmos-3M | Parus 27
Kosmos-3M | Parus 27

Agency: N/A

Status: Launch Successful

Launch date: June 4, 1981, 3:41 p.m. UTC

Rocket: Kosmos-3M

Launch pad: 132/2

Location: Plesetsk Cosmodrome, Russian Federation

...

Latest news about this satellite

There are no fresh news available about this satellite. Check back as we update our databases every day.


Newsletter sign-up

Weekly statistics, charts and insights to help you stay on top of the space industry.